Regional Weather Roundup
Issued by NWS

Home | Current Version | Previous Version | Graphics & Text | Print | Product List | Glossary Off
Versions: 1 2 3 4 5 6 7 8 9 10 11 12 13 14 15 16 17 18 19 20 21 22 23 24 25 26 27 28 29 30 31 32 33 34 35 36 37 38 39 40 41 42 43 44 45 46 47 48 49 50

000
ASUS43 KDMX 270507
RWRIA

WEATHER ROUNDUP FOR IOWA
NATIONAL WEATHER SERVICE DES MOINES IA
1200 AM CDT FRI MAR 27 2015

NOTE: "FAIR" INDICATES FEW OR NO CLOUDS BELOW 12,000 FEET WITH NO
SIGNIFICANT WEATHER AND/OR OBSTRUCTIONS TO VISIBILITY.

* - THESE STATIONS ARE NOT NWS STATIONS...THUS NOT UNDER NWS
QUALITY CONTROL.  THEY ALSO DO NOT REPORT WEATHER SUCH
AS PRECIPITATION OR FOG.

IAZ001>003-012>014-020>022-031>034-043>046-270600-
   NORTHWEST IOWA

CITY           SKY/WX    TMP DP  RH WIND       PRES   REMARKS
CARROLL *      CLOUDY    30  21  69 N12       30.20S WCI  21
CHEROKEE *     CLEAR     27  19  74 N8        30.23S WCI  18
DENISON *      CLOUDY    30  23  74 N13G20    30.19S WCI  20
LE MARS *      CLEAR     27  21  80 N7        30.25R WCI  19
ORANGE CITY *  CLEAR     27  19  74 N5        30.22S WCI  21
SHELDON *      CLEAR     21  18  86 N8        30.22R WCI  12
SIOUX CITY     MOCLDY    31  19  61 NE8       30.25R WCI  23
SPENCER        CLEAR     22  16  78 NW7       30.22R WCI  13
STORM LAKE *   CLEAR     27  19  74 N13       30.21S WCI  16
$$

IAZ055>058-069>071-079>083-090>094-270600-
   SOUTHWEST IOWA

CITY           SKY/WX    TMP DP  RH WIND       PRES   REMARKS
ATLANTIC *     CLOUDY    30  25  80 N8        30.20R WCI  23
AUDUBON *      MOCLDY    30  25  80 N8        30.20S WCI  23
CLARINDA *     MOCLDY    34  32  93 N6        30.21R WCI  29
COUNCIL BLFS * CLEAR     32  32 100 NW7       30.20R WCI  26
CRESTON *      PTCLDY    32  28  86 N13       30.17R WCI  22
HARLAN  *      MOCLDY    30  28  93 N7        30.24R WCI  23
LAMONI         CLOUDY    34  32  92 N6        30.15R WCI  29
RED OAK *      MOCLDY    34  32  93 N8        30.19S WCI  27
SHENANDOAH *   MOCLDY    34  32  93 N6        30.21R WCI  29
$$

IAZ047>049-059>061-072>074-084-270600-
   CENTRAL IOWA

CITY           SKY/WX    TMP DP  RH WIND       PRES   REMARKS
AMES           CLOUDY    31  19  61 N15       30.19R WCI  20
ANKENY *       PTCLDY    30  21  69 N10G18    30.19R WCI  21
CHARITON *     CLOUDY    34  25  69 N10       30.16R WCI  26
DES MOINES     MOCLDY    33  20  58 N17       30.19R WCI  22
GRINNELL*      CLOUDY    32  23  69 N14       30.17R WCI  22
KNOXVILLE *    CLOUDY    34  21  60 N10G17    30.15S WCI  26
MARSHALLTOWN   CLOUDY    31  19  61 N12       30.17R WCI  22
PELLA *        CLOUDY    34  26  72 N10       30.18R WCI  26
PERRY *        CLOUDY    32  25  74 N8        30.20R WCI  25
$$

IAZ004>006-015-016-023>025-035-036-270600-
   NORTH CENTRAL IOWA

CITY           SKY/WX    TMP DP  RH WIND       PRES   REMARKS
ALGONA *       CLEAR     27  19  74 N8        30.20S WCI  18
CLARION *      CLOUDY    30  19  64 N15       30.19R WCI  19
ESTHERVILLE    CLEAR     23  18  81 NW7       30.20S WCI  15
FORT DODGE *   CLOUDY    30  18  59 N9G16     30.20S WCI  22
MASON CITY     MOCLDY    27  18  69 NW15      30.19R WCI  15
FOREST CITY *  PTCLDY    27  19  74 NW9       30.19R WCI  17
IOWA FALLS *   CLOUDY    30  19  64 N13       30.18S WCI  20
$$

IAZ007>011-017>019-026>030-037>042-050>054-066-270600-
   NORTHEAST IOWA

CITY           SKY/WX    TMP DP  RH WIND       PRES   REMARKS
CEDAR RAPIDS   CLOUDY    29  22  75 NW6       30.14S WCI  23
CHARLES CITY * CLOUDY    30  23  74 NW12      30.16S WCI  21
CLINTON *      CLOUDY    30  23  74 NW8       30.14F WCI  23
DECORAH *      CLOUDY    28  16  59 N8        30.12S WCI  20
DUBUQUE        CLOUDY    29  20  69 N10       30.11R WCI  20
MONTICELLO *   CLOUDY    30  25  80 NW7       30.14R WCI  23
OELWEIN *      CLOUDY    30  23  74 NW14      30.15R WCI  20
WATERLOO       CLOUDY    31  23  72 NW10      30.15S WCI  22
$$

IAZ064-065-067-068-078-270600-
   EAST CENTRAL IOWA

CITY           SKY/WX    TMP DP  RH WIND       PRES   REMARKS
DAVENPORT      CLOUDY    29  22  75 NW8       30.13S WCI  21
IOWA CITY      CLEAR     30  20  66 NW7       30.17R WCI  23
MT. PLEASANT * CLOUDY    32  23  69 N10       30.15S WCI  24
MUSCATINE *    CLEAR     28  21  74 N8        30.16S WCI  20
QUAD CITIES    CLOUDY    31  21  66 NW12      30.13R WCI  22
$$

IAZ062-063-075>077-085>089-095>099-270600-
   SOUTHEAST IOWA

CITY           SKY/WX    TMP DP  RH WIND       PRES   REMARKS
BURLINGTON     CLOUDY    33  23  66 N10       30.14R WCI  25
FAIRFIELD *    CLOUDY    32  21  64 N13       30.16R WCI  22
FORT MADISON * CLOUDY    32  23  69 N10       30.15R WCI  24
KEOKUK *       CLOUDY    34  23  64 N10G21    30.14R WCI  26
OSKALOOSA *    CLOUDY    32  23  69 NE12      30.16R WCI  23
CENTERVILLE *  PTCLDY    34  27  75 N8        30.15S WCI  27
OTTUMWA        CLOUDY    33  23  66 NE7       30.15R WCI  27
WASHINGTON *   CLOUDY    32  23  69 N9        30.16R WCI  24
$$

ABBREVIATIONS USED IN REMARKS
   TC - TEMPERATURES IN CELSIUS
  WCI - WIND CHILL INDEX
   HX - HEAT INDEX
  VSB - VISIBILITY
$$




USA.gov is the U.S. government's official web portal to all federal, state and local government web resources and services.